Regional Weather Roundup
Issued by NWS Upton, NY

Current Version | Previous Version | Graphics & Text | Print | Product List | Glossary Off
Versions: 1 2 3 4 5 6 7 8 9 10 11 12 13 14 15 16 17 18 19 20 21 22 23 24 25 26 27

000
ASUS41 KOKX 161108
RWROKX

REGIONAL WEATHER ROUNDUP
NATIONAL WEATHER SERVICE NEW YORK NY
700 AM EDT WED AUG 16 2017

NOTE: "FAIR" INDICATES FEW OR NO CLOUDS BELOW 12,000 FEET WITH NO
SIGNIFICANT WEATHER AND/OR OBSTRUCTIONS TO VISIBILITY.

NYZ071-072-176-178-NJZ106-104-161200-
NEW YORK CITY METRO AREA

CITY           SKY/WX    TMP DP  RH WIND       PRES   REMARKS
Central Park   PTCLDY    70  68  93 NW3       29.98R FOG
Bronx Bot Gard   N/A     70  66  88 NW3       29.94F
LaGuardia APRT PTCLDY    71  69  93 NW7       29.94R
Kennedy INTL   PTCLDY    71  71 100 NW5       29.96R FOG
Breezy Point     N/A     70 N/A N/A NW6         N/A
Newark/Liberty PTCLDY    70  68  93 NW6       29.95R
Teterboro      CLEAR     70  68  93 N3        29.94R FOG
$$

NYZ177-179-078>081-161200-
LONG ISLAND NEW YORK

CITY           SKY/WX    TMP DP  RH WIND       PRES   REMARKS
Jones Beach      N/A     70 N/A N/A NW7         N/A
Matinecock PT    N/A     72 N/A N/A W6          N/A
Farmingdale    PTCLDY    70  69  97 NW6       29.95R FOG
MacArthur/ISP  FOG       70  70 100 NW6       29.93S VSB 1
Shirley        CLEAR     70  70 100 NW3       29.94R FOG
Mt Sinai Harb    N/A    N/A N/A N/A NW5         N/A
Westhampton    CLEAR     66  65  96 NW3       29.95S FOG
East Hampton   PTSUNNY   68  67  98 CALM      29.92S FOG
Montauk          N/A     70  69  97 CALM      29.94R
$$

NYZ052-065-067-161200-
HUDSON VALLEY

CITY           SKY/WX    TMP DP  RH WIND       PRES   REMARKS
White Plains   PTCLDY    70  67  90 NW8       29.95R
Larchmont Harb   N/A     70 N/A N/A W2          N/A
Croton On Huds   N/A     68 N/A N/A MISG        N/A
Newburgh       NOT AVBL
Montgomery     MOCLDY    63  62  97 CALM      29.97S FOG
Poughkeepsie   FOG       65  64  97 NW5       29.96R VSB 1
Albany         PTCLDY    63  61  93 CALM      29.97S
$$

NJZ001-105-106-008-010-013-015-019>022-104-161200-
NEW JERSEY

CITY           SKY/WX    TMP DP  RH WIND       PRES   REMARKS
Newark/Liberty PTCLDY    70  68  93 NW6       29.95R
Teterboro      CLEAR     70  68  93 N3        29.94R FOG
Caldwell       PTCLDY    67  67 100 CALM      29.97S FOG
Somerville     FOG       69  69 100 N3        29.95R VSB<1/4
Linden         NOT AVBL
Perth Amboy      N/A     70 N/A N/A NW7         N/A
Sussex         FOG       64  64 100 CALM      29.98R VSB<1/4
Andover          N/A     65  64  97 CALM      29.99R
Trenton        FOG       69  69 100 NW3       29.96R VSB 1/4
Millville      FOG       71  71 100 W3        29.97R VSB<1/4
Atlantic City  FOG       72  71  97 NW5       29.96R VSB 1/4
Wrightstown    CLOUDY    71  70  99 NW6       29.93S FOG
Toms River     MOCLDY    70  69  97 NW7       29.96R FOG
Belmar         FOG       70  69  97 NW7       29.96S VSB 3/4
$$

PAZ047>061-062-071-161200-
EASTERN PENNSYLVANIA

CITY           SKY/WX    TMP DP  RH WIND       PRES   REMARKS
Philadelphia   PTCLDY    71  69  93 NW6       29.97R FOG
Allentown      FOG       67  65  93 CALM      29.98R VSB<1/4
Scranton       FOG       63  63 100 CALM      30.02S VSB 1/4
$$

CTZ002-004>006-009-010-012-RIZ004-006-007-MAZ004-011-015-161200-
SOUTHERN NEW ENGLAND
 IN CT

CITY           SKY/WX    TMP DP  RH WIND       PRES   REMARKS
Bradley INTL   PTCLDY    66  65  96 N5        29.94S
Hartford       CLEAR     68  67  96 CALM      29.94R
Danbury        CLEAR     68  66  93 CALM      29.97S
Wtrbury/Oxford CLEAR     66  65  96 NW3       29.97S
Norwalk Harbor   N/A     70 N/A N/A NW3         N/A
Bridgeport     CLEAR     71  69  93 NW3       29.94R FOG
Meriden        CLEAR     66  65  96 CALM      29.95R
New Haven      CLEAR     71  68  90 NW6       29.94R FOG
Chester        NOT AVBL
Groton         SUNNY     68  66  93 CALM      29.92S
Wilimantic     PTSUNNY   67  67 100 CALM      29.94R FOG

 IN RI

CITY           SKY/WX    TMP DP  RH WIND       PRES   REMARKS
Providence     PTSUNNY   68  68 100 W7        29.92R FOG
Block Island   SUNNY     69  67  93 NW7       29.92S
Westerly       SUNNY     69  67  93 N5        29.92S FOG
 IN MA

CITY           SKY/WX    TMP DP  RH WIND       PRES   REMARKS
Boston         PTSUNNY   70  66  87 W7        29.90S
Worcester      CLOUDY    65  62  90 W7        29.96R
Westfield      PTCLDY    64  64 100 N7        29.95S
Provincetown   SUNNY     68  66  93 W9        29.90S
Nantucket      CLOUDY    67  67 100 W6        29.90S FOG
$$

ANZ330-335-338-340-345-350-353-355-161200-
COASTAL MARINE OBSERVATIONS


STATION/POSITION TIME  SKY/WX   TEMP    WIND        PRES    VSBY  WAVE
                                AIR SEA DIR/SP/G                  HT/PER
                 (UTC)          (F)     (DEG/KT/KT) (MB)    (MI)  (FT/S)
NY HARB ENTRANCE 0950            71 74  300/ 10/ 16 1012.8          6/13
GREAT SOUTH BAY  1015            71 76  300/  8/  8   N/A
23 SSW MONTAUK P 0950            71 71              1013.2          5/12
15 E BARNEGAT LI 1030               76                N/A           6/12
HUDSON CANYON    0950            73 74  340/  8/ 10 1011.8          7/12
KINGS POINT      1024            71 73  350/  6/  7 1013.8
EXECUTION ROCKS  NOT AVBL
WESTERN LI SOUND NOT AVBL
CENTRAL LI SOUND NOT AVBL
EASTERN LI SOUND NOT AVBL
ROBBINS REEF     1024                   300/  7/  8 1014.5
$$


>>>>>>>>>>>>>>>>>>>>>>>>>>>> KEY <<<<<<<<<<<<<<<<<<<<<<<<<<<
>                                                          <
>     SKY/WX - Sky Condition/Present Weather               <
>     TMP    - Temperature in Fahrenheit                   <
>     DP     - Dew Point in Fahrenheit                     <
>     RH     - Relative Humidity in Percent                <
>     WIND   - Direction (from) and Speed in MPH           <
>     PRES   - Mean Sea Level Pressure (inches of Hg)      <
>     WCI    - Wind Chill Index                            <
>     VSB    - VISIBILITY IN MILES                         <
>     HX     - HEAT INDEX                                  <
>     TC     - TEMPERATURE IN CELSIUS                      <
>     VRB    - VARIABLE WIND DIRECTION                     <
>                                                          <
>>>>>>>>>>>>>>>>>>>>>>>>>>>> KEY <<<<<<<<<<<<<<<<<<<<<<<<<<<




USA.gov is the U.S. government's official web portal to all federal, state and local government web resources and services.